| time (UTC) | temp F | wind direction | speed knots | gust knots | rain 1hr in | rain 24hr in | rain mn in | humidity % | barometer mb |
| 20260506004604 | 73 | 238 | 0.9 | 0.9 | 0.00 | 0.00 | 0.00 | 71 | 1003.2 |
| 20260506004100 | 73 | 302 | 1.7 | 2.6 | 0.00 | 0.00 | 0.00 | 69 | 1002.6 |
| 20260506003557 | 74 | 36 | 2.6 | 4.3 | 0.00 | 0.00 | 0.00 | 69 | 1002.7 |
| 20260506003053 | 74 | 23 | 0.9 | 1.7 | 0.00 | 0.00 | 0.00 | 70 | 1002.7 |
| 20260506002549 | 75 | 121 | 0.9 | 1.7 | 0.00 | 0.00 | 0.00 | 68 | 1002.7 |
| 20260506002045 | 75 | 144 | 0.9 | 0.9 | 0.00 | 0.00 | 0.00 | 68 | 1002.4 |
| 20260506001541 | 75 | 23 | 0.9 | 2.6 | 0.00 | 0.00 | 0.00 | 67 | 1002.4 |
| 20260506001039 | 76 | 343 | 2.6 | 4.3 | 0.00 | 0.00 | 0.00 | 67 | 1002.4 |
| 20260506000536 | 76 | 348 | 2.6 | 2.6 | 0.00 | 0.00 | 0.00 | 68 | 1002.6 |
| 20260506000033 | 77 | 40 | 1.7 | 1.7 | 0.00 | 0.00 | 0.00 | 67 | 1002.4 |
| 20260505235531 | 78 | 26 | 1.7 | 1.7 | 0.00 | 0.00 | 0.00 | 67 | 1002.3 |
| 20260505235028 | 78 | 127 | 0.9 | 1.7 | 0.00 | 0.00 | 0.00 | 66 | 1002.3 |
| 20260505234525 | 79 | 358 | 0.9 | 1.7 | 0.00 | 0.00 | 0.00 | 65 | 1002.4 |
| 20260505234022 | 80 | 72 | 0.9 | 1.7 | 0.00 | 0.00 | 0.00 | 65 | 1002.0 |
| 20260505233519 | 80 | 293 | 2.6 | 2.6 | 0.00 | 0.00 | 0.00 | 64 | 1001.8 |
| 20260505233017 | 81 | 325 | 1.7 | 2.6 | 0.00 | 0.00 | 0.00 | 64 | 1001.8 |
| 20260505232514 | 81 | 251 | 2.6 | 2.6 | 0.00 | 0.00 | 0.00 | 64 | 1001.9 |
| 20260505232012 | 82 | 267 | 0.9 | 0.9 | 0.00 | 0.00 | 0.00 | 63 | 1002.1 |
| 20260505231508 | 83 | 293 | 2.6 | 2.6 | 0.00 | 0.00 | 0.00 | 62 | 1001.7 |
| 20260505231008 | 83 | 283 | 0.9 | 1.7 | 0.00 | 0.00 | 0.00 | 61 | 1001.3 |
| 20260505230504 | 84 | 264 | 3.5 | 4.3 | 0.00 | 0.00 | 0.00 | 60 | 1001.6 |
| 20260505230000 | 84 | 227 | 2.6 | 4.3 | 0.00 | 0.00 | 0.00 | 58 | 1001.4 |
| 20260505225457 | 84 | 233 | 0.9 | 0.9 | 0.00 | 0.00 | 0.00 | 58 | 1001.4 |
| 20260505224953 | 85 | 277 | 5.2 | 6.1 | 0.00 | 0.00 | 0.00 | 58 | 1001.0 |
| 20260505224450 | 86 | 222 | 2.6 | 4.3 | 0.00 | 0.00 | 0.00 | 57 | 1001.0 |
| 20260505223948 | 86 | 259 | 3.5 | 4.3 | 0.00 | 0.00 | 0.00 | 55 | 1001.1 |
| 20260505223444 | 87 | 300 | 4.3 | 6.1 | 0.00 | 0.00 | 0.00 | 53 | 1001.2 |
| 20260505222941 | 87 | 295 | 2.6 | 4.3 | 0.00 | 0.00 | 0.00 | 52 | 1001.2 |
| 20260505222437 | 87 | 29 | 1.7 | 2.6 | 0.00 | 0.00 | 0.00 | 51 | 1000.7 |
| 20260505221933 | 88 | 228 | 1.7 | 2.6 | 0.00 | 0.00 | 0.00 | 50 | 1000.7 |
| 20260505221431 | 88 | 338 | 2.6 | 4.3 | 0.00 | 0.00 | 0.00 | 49 | 1000.8 |
| 20260505220928 | 88 | 288 | 2.6 | 4.3 | 0.00 | 0.00 | 0.00 | 49 | 1000.8 |
| 20260505220425 | 88 | 257 | 4.3 | 6.1 | 0.00 | 0.00 | 0.00 | 49 | 1000.7 |
| 20260505215922 | 89 | 280 | 1.7 | 1.7 | 0.00 | 0.00 | 0.00 | 49 | 1000.4 |
| 20260505215420 | 91 | 277 | 4.3 | 6.1 | 0.00 | 0.00 | 0.00 | 49 | 1000.5 |
| 20260505214918 | 93 | 262 | 0.9 | 1.7 | 0.00 | 0.00 | 0.00 | 50 | 1000.6 |
| 20260505214415 | 93 | 270 | 0.0 | 0.0 | 0.00 | 0.00 | 0.00 | 49 | 1000.6 |
| 20260505213912 | 93 | 295 | 0.0 | 0.9 | 0.00 | 0.00 | 0.00 | 49 | 1000.6 |
| 20260505213410 | 93 | 227 | 2.6 | 2.6 | 0.00 | 0.00 | 0.00 | 48 | 1000.4 |
| 20260505212906 | 93 | 236 | 3.5 | 7.0 | 0.00 | 0.00 | 0.00 | 49 | 1000.4 |
| 20260505212403 | 91 | 278 | 0.9 | 1.7 | 0.00 | 0.00 | 0.00 | 50 | 1000.3 |
| 20260505211859 | 92 | 297 | 2.6 | 4.3 | 0.00 | 0.00 | 0.00 | 50 | 1000.6 |
| 20260505211357 | 93 | 245 | 2.6 | 2.6 | 0.00 | 0.00 | 0.00 | 50 | 1000.6 |
| 20260505210853 | 92 | 264 | 0.9 | 1.7 | 0.00 | 0.00 | 0.00 | 49 | 1000.6 |
| 20260505210350 | 93 | 283 | 2.6 | 4.3 | 0.00 | 0.00 | 0.00 | 51 | 1000.7 |
| 20260505205847 | 92 | 202 | 2.6 | 6.1 | 0.00 | 0.00 | 0.00 | 51 | 1000.9 |
| 20260505205345 | 91 | 198 | 2.6 | 2.6 | 0.00 | 0.00 | 0.00 | 54 | 1000.8 |
| 20260505204842 | 92 | 222 | 1.7 | 1.7 | 0.00 | 0.00 | 0.00 | 56 | 1000.9 |
| 20260505204340 | 92 | 268 | 2.6 | 2.6 | 0.00 | 0.00 | 0.00 | 55 | 1000.8 |
| 20260505203837 | 92 | 303 | 0.9 | 0.9 | 0.00 | 0.00 | 0.00 | 56 | 1001.1 |
| 20260505203333 | 91 | 248 | 2.6 | 4.3 | 0.00 | 0.00 | 0.00 | 56 | 1001.0 |
| 20260505202830 | 92 | 218 | 3.5 | 5.2 | 0.00 | 0.00 | 0.00 | 55 | 1001.0 |
| 20260505202326 | 92 | 278 | 2.6 | 2.6 | 0.00 | 0.00 | 0.00 | 56 | 1001.3 |
| 20260505201822 | 91 | 248 | 2.6 | 2.6 | 0.00 | 0.00 | 0.00 | 57 | 1001.4 |
| 20260505201320 | 90 | 236 | 0.9 | 1.7 | 0.00 | 0.00 | 0.00 | 58 | 1001.3 |
| 20260505200818 | 91 | 85 | 2.6 | 2.6 | 0.00 | 0.00 | 0.00 | 57 | 1001.2 |
| 20260505200315 | 90 | 250 | 0.9 | 1.7 | 0.00 | 0.00 | 0.00 | 58 | 1001.6 |
| 20260505195810 | 90 | 211 | 3.5 | 5.2 | 0.00 | 0.00 | 0.00 | 58 | 1001.2 |
| 20260505195308 | 89 | 183 | 4.3 | 6.1 | 0.00 | 0.00 | 0.00 | 58 | 1001.4 |
| 20260505194804 | 89 | 251 | 0.9 | 1.7 | 0.00 | 0.00 | 0.00 | 59 | 1001.7 |
| 20260505194302 | 89 | 184 | 3.5 | 5.2 | 0.00 | 0.00 | 0.00 | 59 | 1001.7 |
| 20260505193757 | 89 | 255 | 2.6 | 2.6 | 0.00 | 0.00 | 0.00 | 59 | 1001.7 |
| 20260505193255 | 88 | 240 | 2.6 | 4.3 | 0.00 | 0.00 | 0.00 | 61 | 1001.6 |
| 20260505192753 | 88 | 219 | 0.9 | 1.7 | 0.00 | 0.00 | 0.00 | 62 | 1001.8 |
| 20260505192250 | 88 | 216 | 3.5 | 4.3 | 0.00 | 0.00 | 0.00 | 61 | 1001.4 |
| 20260505191748 | 88 | 212 | 2.6 | 4.3 | 0.00 | 0.00 | 0.00 | 61 | 1001.4 |
| 20260505191247 | 88 | 150 | 2.6 | 2.6 | 0.00 | 0.00 | 0.00 | 62 | 1001.4 |
| 20260505190742 | 87 | 184 | 1.7 | 2.6 | 0.00 | 0.00 | 0.00 | 62 | 1001.6 |
| 20260505190237 | 87 | 137 | 2.6 | 4.3 | 0.00 | 0.00 | 0.00 | 62 | 1001.3 |
| 20260505185734 | 87 | 232 | 1.7 | 1.7 | 0.00 | 0.00 | 0.00 | 65 | 1001.4 |
| 20260505185230 | 87 | 278 | 2.6 | 5.2 | 0.00 | 0.00 | 0.00 | 64 | 1001.7 |
| 20260505184726 | 86 | 243 | 2.6 | 4.3 | 0.00 | 0.00 | 0.00 | 64 | 1001.9 |
| 20260505184224 | 86 | 293 | 1.7 | 1.7 | 0.00 | 0.00 | 0.00 | 67 | 1001.7 |
| 20260505183720 | 86 | 223 | 2.6 | 4.3 | 0.00 | 0.00 | 0.00 | 65 | 1001.6 |
| 20260505183218 | 85 | 207 | 2.6 | 5.2 | 0.00 | 0.00 | 0.00 | 66 | 1002.1 |
| 20260505182714 | 85 | 216 | 0.9 | 0.9 | 0.00 | 0.00 | 0.00 | 67 | 1001.9 |
| 20260505182212 | 84 | 207 | 2.6 | 2.6 | 0.00 | 0.00 | 0.00 | 67 | 1001.7 |
| 20260505181708 | 85 | 237 | 0.9 | 1.7 | 0.00 | 0.00 | 0.00 | 67 | 1001.8 |
| 20260505181206 | 86 | 206 | 2.6 | 4.3 | 0.00 | 0.00 | 0.00 | 67 | 1001.8 |
| 20260505180702 | 85 | 243 | 1.7 | 1.7 | 0.00 | 0.00 | 0.00 | 66 | 1001.8 |
| 20260505180159 | 86 | 202 | 2.6 | 2.6 | 0.00 | 0.00 | 0.00 | 66 | 1001.7 |
| 20260505175654 | 85 | 205 | 1.7 | 1.7 | 0.00 | 0.00 | 0.00 | 66 | 1002.0 |
| 20260505175151 | 85 | 237 | 0.9 | 1.7 | 0.00 | 0.00 | 0.00 | 66 | 1001.9 |
| 20260505174648 | 84 | 202 | 2.6 | 4.3 | 0.00 | 0.00 | 0.00 | 67 | 1002.0 |
| 20260505174144 | 84 | 350 | 1.7 | 1.7 | 0.00 | 0.00 | 0.00 | 68 | 1001.8 |
| 20260505173641 | 84 | 197 | 1.7 | 2.6 | 0.00 | 0.00 | 0.00 | 69 | 1001.8 |
| 20260505173138 | 84 | 219 | 1.7 | 1.7 | 0.00 | 0.00 | 0.00 | 69 | 1001.7 |
| 20260505172635 | 83 | 193 | 2.6 | 5.2 | 0.00 | 0.00 | 0.00 | 70 | 1001.9 |
| 20260505172132 | 83 | 216 | 1.7 | 1.7 | 0.00 | 0.00 | 0.00 | 70 | 1001.9 |
| 20260505171626 | 83 | 234 | 2.6 | 4.3 | 0.00 | 0.00 | 0.00 | 70 | 1001.9 |
| 20260505171124 | 83 | 197 | 2.6 | 4.3 | 0.00 | 0.00 | 0.00 | 71 | 1002.0 |
| 20260505170621 | 82 | 222 | 1.7 | 1.7 | 0.00 | 0.00 | 0.00 | 70 | 1001.9 |
| 20260505170117 | 82 | 219 | 2.6 | 4.3 | 0.00 | 0.00 | 0.00 | 70 | 1001.9 |
| 20260505165612 | 82 | 232 | 1.7 | 1.7 | 0.00 | 0.00 | 0.00 | 71 | 1002.1 |
| 20260505165108 | 82 | 205 | 0.9 | 1.7 | 0.00 | 0.00 | 0.00 | 72 | 1002.1 |
| 20260505164604 | 82 | 193 | 2.6 | 2.6 | 0.00 | 0.00 | 0.00 | 71 | 1002.2 |
| 20260505164102 | 82 | 219 | 2.6 | 5.2 | 0.00 | 0.00 | 0.00 | 72 | 1002.1 |
| 20260505163600 | 81 | 239 | 2.6 | 4.3 | 0.00 | 0.00 | 0.00 | 73 | 1001.8 |
| 20260505163057 | 81 | 236 | 0.9 | 1.7 | 0.00 | 0.00 | 0.00 | 74 | 1001.8 |
| 20260505162549 | 81 | 179 | 2.6 | 4.3 | 0.00 | 0.00 | 0.00 | 74 | 1002.0 |
| 20260505162047 | 80 | 266 | 2.6 | 2.6 | 0.00 | 0.00 | 0.00 | 75 | 1001.7 |
| 20260505161544 | 80 | 216 | 2.6 | 2.6 | 0.00 | 0.00 | 0.00 | 75 | 1001.7 |
| 20260505161041 | 79 | 207 | 1.7 | 1.7 | 0.00 | 0.00 | 0.00 | 76 | 1001.8 |
| 20260505160539 | 80 | 213 | 1.7 | 1.7 | 0.00 | 0.00 | 0.00 | 75 | 1002.0 |
| 20260505153015 | 78 | 193 | 0.9 | 1.7 | 0.00 | 0.00 | 0.00 | 78 | 1001.8 |
| 20260505152512 | 78 | 246 | 1.7 | 1.7 | 0.00 | 0.00 | 0.00 | 78 | 1001.4 |
| 20260505152008 | 78 | 216 | 2.6 | 2.6 | 0.00 | 0.00 | 0.00 | 77 | 1001.9 |
| 20260505151503 | 79 | 216 | 2.6 | 4.3 | 0.00 | 0.00 | 0.00 | 77 | 1001.7 |
| 20260505151000 | 78 | 240 | 1.7 | 2.6 | 0.00 | 0.00 | 0.00 | 78 | 1001.8 |
| 20260505150457 | 77 | 234 | 0.9 | 0.9 | 0.00 | 0.00 | 0.00 | 80 | 1001.9 |
| 20260505140427 | 74 | 357 | 0.9 | 1.7 | 0.00 | 0.00 | 0.00 | 84 | 1001.7 |
| 20260505124841 | 72 | 249 | 1.7 | 1.7 | 0.00 | 0.00 | 0.00 | 87 | 1001.0 |
| 20260505124338 | 71 | 239 | 1.7 | 2.6 | 0.00 | 0.00 | 0.00 | 87 | 1001.1 |
| 20260505123834 | 71 | 262 | 2.6 | 4.3 | 0.00 | 0.00 | 0.00 | 88 | 1001.2 |
| 20260505123330 | 71 | 253 | 2.6 | 2.6 | 0.00 | 0.00 | 0.00 | 88 | 1000.9 |
| 20260505122826 | 71 | 266 | 0.9 | 1.7 | 0.00 | 0.00 | 0.00 | 88 | 1001.0 |
| 20260505122324 | 71 | 314 | 1.7 | 1.7 | 0.00 | 0.00 | 0.00 | 88 | 1000.9 |
| 20260505121820 | 71 | 349 | 0.9 | 1.7 | 0.00 | 0.00 | 0.00 | 88 | 1001.0 |
| 20260505121318 | 71 | 248 | 1.7 | 1.7 | 0.00 | 0.00 | 0.00 | 88 | 1000.7 |
| 20260505120814 | 71 | 204 | 0.0 | 0.9 | 0.00 | 0.00 | 0.00 | 88 | 1000.7 |
| 20260505120310 | 71 | 227 | 1.7 | 1.7 | 0.00 | 0.00 | 0.00 | 88 | 1000.7 |
| 20260505115808 | 71 | 86 | 1.7 | 2.6 | 0.00 | 0.00 | 0.00 | 88 | 1000.8 |
| 20260505115306 | 71 | 201 | 3.5 | 6.1 | 0.00 | 0.00 | 0.00 | 88 | 1000.7 |
| 20260505114804 | 71 | 228 | 1.7 | 1.7 | 0.00 | 0.00 | 0.00 | 88 | 1000.7 |
| 20260505114300 | 71 | 225 | 1.7 | 2.6 | 0.00 | 0.00 | 0.00 | 88 | 1000.7 |
| 20260505113756 | 71 | 221 | 1.7 | 1.7 | 0.00 | 0.00 | 0.00 | 88 | 1000.8 |
| 20260505113253 | 71 | 226 | 4.3 | 6.1 | 0.00 | 0.00 | 0.00 | 87 | 1000.6 |
| 20260505112748 | 71 | 132 | 1.7 | 1.7 | 0.00 | 0.00 | 0.00 | 87 | 1000.5 |
| 20260505112246 | 71 | 234 | 3.5 | 5.2 | 0.00 | 0.00 | 0.00 | 88 | 1000.5 |
| 20260505111747 | 71 | 253 | 1.7 | 1.7 | 0.00 | 0.00 | 0.00 | 87 | 1000.5 |
| 20260505111243 | 71 | 284 | 0.9 | 1.7 | 0.00 | 0.00 | 0.00 | 87 | 1000.5 |
| 20260505110739 | 71 | 227 | 1.7 | 2.6 | 0.00 | 0.00 | 0.00 | 87 | 1000.5 |
| 20260505110237 | 71 | 176 | 1.7 | 2.6 | 0.00 | 0.00 | 0.00 | 87 | 1000.5 |
| 20260505102212 | 71 | 221 | 0.9 | 0.9 | 0.00 | 0.00 | 0.00 | 87 | 1000.4 |
| 20260505101711 | 71 | 5 | 1.7 | 2.6 | 0.00 | 0.00 | 0.00 | 87 | 1000.6 |
| 20260505101206 | 71 | 224 | 2.6 | 5.2 | 0.00 | 0.00 | 0.00 | 87 | 1000.7 |
| 20260505100703 | 72 | 5 | 2.6 | 2.6 | 0.00 | 0.00 | 0.00 | 86 | 1000.5 |
| 20260505100200 | 72 | 244 | 2.6 | 4.3 | 0.00 | 0.00 | 0.00 | 86 | 1000.6 |
| 20260505095655 | 71 | 241 | 1.7 | 1.7 | 0.00 | 0.00 | 0.00 | 86 | 1000.8 |
| 20260505095153 | 72 | 281 | 2.6 | 2.6 | 0.00 | 0.00 | 0.00 | 86 | 1000.3 |
| 20260505094649 | 72 | 311 | 2.6 | 2.6 | 0.00 | 0.00 | 0.00 | 86 | 1000.7 |
| 20260505094145 | 72 | 220 | 0.9 | 0.9 | 0.00 | 0.00 | 0.00 | 86 | 1000.7 |
| 20260505093642 | 72 | 355 | 1.7 | 2.6 | 0.00 | 0.00 | 0.00 | 86 | 1000.6 |
| 20260505093139 | 72 | 240 | 1.7 | 2.6 | 0.00 | 0.00 | 0.00 | 86 | 1000.8 |
| 20260505092636 | 72 | 202 | 0.9 | 1.7 | 0.00 | 0.00 | 0.00 | 86 | 1000.8 |
| 20260505092135 | 72 | 217 | 1.7 | 4.3 | 0.00 | 0.00 | 0.00 | 86 | 1000.8 |
| 20260505091631 | 72 | 234 | 1.7 | 1.7 | 0.00 | 0.00 | 0.00 | 86 | 1000.9 |
| 20260505091129 | 72 | 229 | 1.7 | 1.7 | 0.00 | 0.00 | 0.00 | 86 | 1000.8 |
| 20260505090627 | 72 | 207 | 0.9 | 1.7 | 0.00 | 0.00 | 0.00 | 86 | 1001.1 |
| 20260505090125 | 72 | 127 | 2.6 | 4.3 | 0.00 | 0.00 | 0.00 | 85 | 1000.7 |
| 20260505085622 | 72 | 255 | 3.5 | 4.3 | 0.00 | 0.00 | 0.00 | 85 | 1000.9 |
| 20260505085120 | 72 | 214 | 2.6 | 2.6 | 0.00 | 0.00 | 0.00 | 85 | 1000.8 |
| 20260505084618 | 72 | 214 | 2.6 | 2.6 | 0.00 | 0.00 | 0.00 | 85 | 1000.8 |
| 20260505084116 | 72 | 203 | 1.7 | 1.7 | 0.00 | 0.00 | 0.00 | 85 | 1000.9 |
| 20260505083613 | 72 | 231 | 1.7 | 2.6 | 0.00 | 0.00 | 0.00 | 84 | 1001.0 |
| 20260505083109 | 72 | 219 | 2.6 | 2.6 | 0.00 | 0.00 | 0.00 | 84 | 1001.0 |
| 20260505082605 | 72 | 251 | 2.6 | 7.0 | 0.00 | 0.00 | 0.00 | 84 | 1000.8 |
| 20260505082103 | 72 | 302 | 1.7 | 2.6 | 0.00 | 0.00 | 0.00 | 84 | 1001.1 |
| 20260505081559 | 72 | 159 | 2.6 | 7.0 | 0.00 | 0.00 | 0.00 | 84 | 1001.0 |
| 20260505081056 | 72 | 6 | 0.9 | 0.9 | 0.00 | 0.00 | 0.00 | 83 | 1000.9 |
| 20260505080552 | 72 | 203 | 1.7 | 1.7 | 0.00 | 0.00 | 0.00 | 83 | 1000.9 |
| 20260505080049 | 73 | 268 | 0.9 | 0.9 | 0.00 | 0.00 | 0.00 | 83 | 1001.1 |
| 20260505075544 | 73 | 253 | 2.6 | 4.3 | 0.00 | 0.00 | 0.00 | 82 | 1001.1 |
| 20260505075042 | 73 | 29 | 0.9 | 1.7 | 0.00 | 0.00 | 0.00 | 82 | 1001.1 |
| 20260505074538 | 73 | 209 | 2.6 | 2.6 | 0.00 | 0.00 | 0.00 | 81 | 1001.3 |
| 20260505074036 | 73 | 236 | 1.7 | 4.3 | 0.00 | 0.00 | 0.00 | 81 | 1001.3 |
| 20260505073533 | 73 | 262 | 1.7 | 2.6 | 0.00 | 0.00 | 0.00 | 81 | 1001.6 |
| 20260505073032 | 73 | 220 | 1.7 | 2.6 | 0.00 | 0.00 | 0.00 | 81 | 1001.6 |
| 20260505072527 | 73 | 245 | 0.9 | 0.9 | 0.00 | 0.00 | 0.00 | 80 | 1001.7 |
| 20260505072023 | 73 | 295 | 0.9 | 1.7 | 0.00 | 0.00 | 0.00 | 80 | 1001.9 |
| 20260505071519 | 73 | 262 | 0.9 | 0.9 | 0.00 | 0.00 | 0.00 | 80 | 1001.7 |
| 20260505071017 | 73 | 258 | 2.6 | 4.3 | 0.00 | 0.00 | 0.00 | 79 | 1002.0 |
| 20260505070514 | 73 | 197 | 2.6 | 2.6 | 0.00 | 0.00 | 0.00 | 79 | 1002.3 |
| 20260505070010 | 74 | 265 | 1.7 | 2.6 | 0.00 | 0.00 | 0.00 | 79 | 1002.3 |
| 20260505065506 | 74 | 217 | 1.7 | 1.7 | 0.00 | 0.00 | 0.00 | 78 | 1002.5 |
| 20260505065003 | 74 | 162 | 4.3 | 6.1 | 0.00 | 0.00 | 0.00 | 78 | 1002.3 |
| 20260505064500 | 74 | 273 | 2.6 | 4.3 | 0.00 | 0.00 | 0.00 | 78 | 1002.3 |
| 20260505063958 | 74 | 183 | 1.7 | 2.6 | 0.00 | 0.00 | 0.00 | 77 | 1002.3 |
| 20260505063455 | 74 | 240 | 4.3 | 5.2 | 0.00 | 0.00 | 0.00 | 77 | 1002.5 |
| 20260505062951 | 74 | 204 | 1.7 | 5.2 | 0.00 | 0.00 | 0.00 | 76 | 1002.3 |
| 20260505062448 | 74 | 316 | 2.6 | 5.2 | 0.00 | 0.00 | 0.00 | 76 | 1002.5 |
| 20260505061945 | 75 | 239 | 2.6 | 5.2 | 0.00 | 0.00 | 0.00 | 76 | 1002.4 |
| 20260505061443 | 75 | 233 | 0.9 | 1.7 | 0.00 | 0.00 | 0.00 | 75 | 1002.6 |
| 20260505060940 | 75 | 225 | 2.6 | 4.3 | 0.00 | 0.00 | 0.00 | 75 | 1002.6 |
| 20260505060437 | 75 | 170 | 1.7 | 1.7 | 0.00 | 0.00 | 0.00 | 75 | 1002.6 |
| 20260505055933 | 75 | 225 | 2.6 | 5.2 | 0.00 | 0.00 | 0.00 | 74 | 1002.7 |
| 20260505055430 | 75 | 207 | 1.7 | 2.6 | 0.00 | 0.00 | 0.00 | 74 | 1002.4 |
| 20260505054926 | 75 | 296 | 1.7 | 1.7 | 0.00 | 0.00 | 0.00 | 74 | 1002.5 |
| 20260505054424 | 75 | 253 | 1.7 | 1.7 | 0.00 | 0.00 | 0.00 | 74 | 1002.4 |
| 20260505053922 | 75 | 255 | 1.7 | 1.7 | 0.00 | 0.00 | 0.00 | 74 | 1002.5 |
| 20260505053418 | 75 | 250 | 2.6 | 4.3 | 0.00 | 0.00 | 0.00 | 74 | 1002.3 |
| 20260505052915 | 75 | 263 | 0.9 | 0.9 | 0.00 | 0.00 | 0.00 | 74 | 1002.5 |
| 20260505052412 | 75 | 168 | 1.7 | 1.7 | 0.00 | 0.00 | 0.00 | 74 | 1002.4 |
| 20260505051910 | 75 | 322 | 2.6 | 2.6 | 0.00 | 0.00 | 0.00 | 74 | 1002.6 |
| 20260505051407 | 75 | 42 | 2.6 | 4.3 | 0.00 | 0.00 | 0.00 | 74 | 1002.6 |
| 20260505050905 | 75 | 230 | 3.5 | 6.1 | 0.00 | 0.00 | 0.00 | 74 | 1003.1 |
| 20260505050403 | 75 | 223 | 2.6 | 2.6 | 0.00 | 0.00 | 0.00 | 73 | 1002.6 |
| 20260505041330 | 75 | 206 | 4.3 | 6.1 | 0.00 | 0.00 | 0.00 | 73 | 1002.6 |
| 20260505040827 | 75 | 200 | 1.7 | 1.7 | 0.00 | 0.00 | 0.00 | 73 | 1002.9 |
| 20260505040325 | 75 | 275 | 3.5 | 5.2 | 0.00 | 0.00 | 0.00 | 73 | 1002.7 |
| 20260505035821 | 75 | 212 | 0.9 | 0.9 | 0.00 | 0.00 | 0.00 | 73 | 1002.8 |
| 20260505035317 | 75 | 236 | 2.6 | 2.6 | 0.00 | 0.00 | 0.00 | 73 | 1002.7 |
| 20260505034815 | 75 | 225 | 2.6 | 4.3 | 0.00 | 0.00 | 0.00 | 73 | 1002.7 |
| 20260505034311 | 75 | 261 | 2.6 | 4.3 | 0.00 | 0.00 | 0.00 | 73 | 1002.7 |
| 20260505033808 | 75 | 187 | 0.9 | 1.7 | 0.00 | 0.00 | 0.00 | 73 | 1002.8 |
| 20260505033305 | 75 | 266 | 2.6 | 2.6 | 0.00 | 0.00 | 0.00 | 73 | 1003.0 |
| 20260505032804 | 75 | 173 | 1.7 | 1.7 | 0.00 | 0.00 | 0.00 | 72 | 1002.5 |
| 20260505032259 | 76 | 253 | 1.7 | 2.6 | 0.00 | 0.00 | 0.00 | 72 | 1002.6 |
| 20260505031756 | 76 | 242 | 2.6 | 4.3 | 0.00 | 0.00 | 0.00 | 72 | 1002.8 |
| 20260505031252 | 76 | 244 | 1.7 | 2.6 | 0.00 | 0.00 | 0.00 | 72 | 1002.9 |
| 20260505030750 | 76 | 245 | 1.7 | 2.6 | 0.00 | 0.00 | 0.00 | 72 | 1002.8 |
| 20260505030246 | 76 | 252 | 1.7 | 1.7 | 0.00 | 0.00 | 0.00 | 72 | 1003.0 |
| 20260505025742 | 76 | 280 | 2.6 | 4.3 | 0.00 | 0.00 | 0.00 | 72 | 1002.6 |
| 20260505025240 | 76 | 246 | 0.9 | 1.7 | 0.00 | 0.00 | 0.00 | 72 | 1002.9 |
| 20260505024738 | 76 | 37 | 1.7 | 1.7 | 0.00 | 0.00 | 0.00 | 71 | 1002.9 |
| 20260505024235 | 76 | 265 | 1.7 | 1.7 | 0.00 | 0.00 | 0.00 | 71 | 1003.1 |
| 20260505023732 | 76 | 266 | 1.7 | 2.6 | 0.00 | 0.00 | 0.00 | 71 | 1002.7 |
| 20260505023230 | 76 | 55 | 2.6 | 2.6 | 0.00 | 0.00 | 0.00 | 70 | 1002.8 |
| 20260505022727 | 76 | 206 | 1.7 | 1.7 | 0.00 | 0.00 | 0.00 | 71 | 1003.1 |
| 20260505022224 | 76 | 213 | 1.7 | 1.7 | 0.00 | 0.00 | 0.00 | 70 | 1002.7 |
| 20260505021720 | 76 | 217 | 3.5 | 6.1 | 0.00 | 0.00 | 0.00 | 70 | 1002.9 |
| 20260505021217 | 76 | 169 | 2.6 | 4.3 | 0.00 | 0.00 | 0.00 | 70 | 1002.8 |
| 20260505020713 | 76 | 223 | 0.9 | 1.7 | 0.00 | 0.00 | 0.00 | 70 | 1002.8 |
| 20260505020208 | 76 | 292 | 0.9 | 0.9 | 0.00 | 0.00 | 0.00 | 70 | 1002.9 |
| 20260505015706 | 76 | 221 | 1.7 | 2.6 | 0.00 | 0.00 | 0.00 | 70 | 1002.7 |
| 20260505015203 | 76 | 252 | 0.0 | 0.0 | 0.00 | 0.00 | 0.00 | 70 | 1002.8 |
| 20260505014700 | 77 | 318 | 0.9 | 1.7 | 0.00 | 0.00 | 0.00 | 69 | 1002.9 |
| 20260505014157 | 77 | 285 | 0.9 | 0.9 | 0.00 | 0.00 | 0.00 | 69 | 1002.9 |
| 20260505013654 | 77 | 271 | 2.6 | 4.3 | 0.00 | 0.00 | 0.00 | 69 | 1002.9 |
| 20260505013151 | 77 | 237 | 0.9 | 1.7 | 0.00 | 0.00 | 0.00 | 69 | 1002.7 |
| 20260505012649 | 77 | 221 | 2.6 | 2.6 | 0.00 | 0.00 | 0.00 | 68 | 1002.8 |
| 20260505012146 | 77 | 229 | 3.5 | 5.2 | 0.00 | 0.00 | 0.00 | 68 | 1002.8 |
| 20260505011642 | 77 | 201 | 2.6 | 4.3 | 0.00 | 0.00 | 0.00 | 68 | 1002.7 |
| 20260505011139 | 77 | 216 | 1.7 | 1.7 | 0.00 | 0.00 | 0.00 | 67 | 1002.9 |
| 20260505010639 | 78 | 246 | 2.6 | 5.2 | 0.00 | 0.00 | 0.00 | 67 | 1002.6 |
| 20260505010137 | 78 | 235 | 0.9 | 1.7 | 0.00 | 0.00 | 0.00 | 66 | 1002.7 |
| 20260505005632 | 78 | 264 | 3.5 | 4.3 | 0.00 | 0.00 | 0.00 | 66 | 1002.6 |
| 20260505005130 | 78 | 220 | 3.5 | 5.2 | 0.00 | 0.00 | 0.00 | 66 | 1002.6 |